| time (UTC) | temp F | wind direction | speed MPH | gust MPH | rain 1hr in | rain 24hr in | rain mn in | humidity % | barometer mb |
| 20260505001702 | 71 | 180 | 2.0 | 13.0 | 0.00 | 0.00 | 0.00 | 55 | 998.5 |
| 20260505001200 | 72 | 197 | 17.0 | 23.0 | 0.00 | 0.00 | 0.00 | 51 | 998.7 |
| 20260505000657 | 72 | 169 | 6.0 | 8.0 | 0.00 | 0.00 | 0.00 | 49 | 998.5 |
| 20260505000155 | 73 | 89 | 0.0 | 4.0 | 0.00 | 0.00 | 0.00 | 49 | 998.4 |
| 20260504235651 | 73 | 198 | 3.0 | 5.0 | 0.00 | 0.00 | 0.00 | 48 | 998.5 |
| 20260504235147 | 73 | 322 | 0.0 | 4.0 | 0.00 | 0.00 | 0.00 | 48 | 998.5 |
| 20260504234645 | 73 | 141 | 0.0 | 5.0 | 0.00 | 0.00 | 0.00 | 48 | 998.6 |
| 20260504234142 | 73 | 124 | 4.0 | 6.0 | 0.00 | 0.00 | 0.00 | 49 | 998.5 |
| 20260504233637 | 73 | 232 | 8.0 | 10.0 | 0.00 | 0.00 | 0.00 | 47 | 998.6 |
| 20260504233133 | 73 | 184 | 4.0 | 11.0 | 0.00 | 0.00 | 0.00 | 47 | 998.8 |
| 20260504232631 | 74 | 165 | 0.0 | 6.0 | 0.00 | 0.00 | 0.00 | 47 | 998.5 |
| 20260504232128 | 73 | 171 | 3.0 | 8.0 | 0.00 | 0.00 | 0.00 | 46 | 998.5 |
| 20260504231624 | 73 | 179 | 4.0 | 9.0 | 0.00 | 0.00 | 0.00 | 46 | 998.6 |
| 20260504231121 | 74 | 212 | 2.0 | 6.0 | 0.00 | 0.00 | 0.00 | 46 | 998.6 |
| 20260504230617 | 75 | 151 | 1.0 | 7.0 | 0.00 | 0.00 | 0.00 | 46 | 998.8 |
| 20260504230116 | 76 | 236 | 2.0 | 6.0 | 0.00 | 0.00 | 0.00 | 43 | 998.8 |
| 20260504225614 | 75 | 180 | 3.0 | 11.0 | 0.00 | 0.00 | 0.00 | 43 | 998.5 |
| 20260504225110 | 76 | 181 | 5.0 | 9.0 | 0.00 | 0.00 | 0.00 | 43 | 998.7 |
| 20260504224607 | 77 | 192 | 4.0 | 7.0 | 0.00 | 0.00 | 0.00 | 43 | 998.7 |
| 20260504224104 | 77 | 335 | 3.0 | 4.0 | 0.00 | 0.00 | 0.00 | 43 | 998.5 |
| 20260504223601 | 76 | 230 | 2.0 | 5.0 | 0.00 | 0.00 | 0.00 | 43 | 998.8 |
| 20260504223056 | 76 | 219 | 4.0 | 7.0 | 0.00 | 0.00 | 0.00 | 42 | 998.8 |
| 20260504222553 | 76 | 186 | 2.0 | 7.0 | 0.00 | 0.00 | 0.00 | 42 | 999.0 |
| 20260504222050 | 75 | 159 | 2.0 | 11.0 | 0.00 | 0.00 | 0.00 | 42 | 999.3 |
| 20260504221548 | 75 | 196 | 5.0 | 9.0 | 0.00 | 0.00 | 0.00 | 42 | 999.2 |
| 20260504221044 | 75 | 170 | 1.0 | 10.0 | 0.00 | 0.00 | 0.00 | 42 | 999.4 |
| 20260504220541 | 74 | 196 | 3.0 | 15.0 | 0.00 | 0.00 | 0.00 | 41 | 999.3 |
| 20260504220038 | 75 | 182 | 5.0 | 17.0 | 0.00 | 0.00 | 0.00 | 40 | 999.6 |
| 20260504215534 | 75 | 190 | 3.0 | 11.0 | 0.00 | 0.00 | 0.00 | 40 | 999.6 |
| 20260504215032 | 75 | 193 | 6.0 | 13.0 | 0.00 | 0.00 | 0.00 | 39 | 999.5 |
| 20260504214528 | 76 | 144 | 0.0 | 7.0 | 0.00 | 0.00 | 0.00 | 39 | 999.4 |
| 20260504214024 | 77 | 210 | 4.0 | 9.0 | 0.00 | 0.00 | 0.00 | 37 | 999.7 |
| 20260504213521 | 78 | 176 | 8.0 | 13.0 | 0.00 | 0.00 | 0.00 | 37 | 999.5 |
| 20260504213018 | 78 | 183 | 6.0 | 11.0 | 0.00 | 0.00 | 0.00 | 36 | 999.6 |
| 20260504212514 | 78 | 273 | 4.0 | 11.0 | 0.00 | 0.00 | 0.00 | 36 | 999.6 |
| 20260504212012 | 78 | 153 | 5.0 | 11.0 | 0.00 | 0.00 | 0.00 | 35 | 999.6 |
| 20260504211508 | 78 | 176 | 1.0 | 8.0 | 0.00 | 0.00 | 0.00 | 35 | 999.6 |
| 20260504211006 | 77 | 186 | 6.0 | 16.0 | 0.00 | 0.00 | 0.00 | 35 | 999.7 |
| 20260504210502 | 78 | 225 | 4.0 | 12.0 | 0.00 | 0.00 | 0.00 | 35 | 999.7 |
| 20260504205959 | 77 | 191 | 5.0 | 13.0 | 0.00 | 0.00 | 0.00 | 33 | 999.8 |
| 20260504205457 | 78 | 190 | 5.0 | 10.0 | 0.00 | 0.00 | 0.00 | 33 | 999.7 |
| 20260504204955 | 78 | 238 | 1.0 | 8.0 | 0.00 | 0.00 | 0.00 | 35 | 999.7 |
| 20260504204453 | 78 | 212 | 7.0 | 13.0 | 0.00 | 0.00 | 0.00 | 31 | 999.8 |
| 20260504203952 | 78 | 200 | 3.0 | 14.0 | 0.00 | 0.00 | 0.00 | 32 | 999.9 |
| 20260504203450 | 78 | 175 | 6.0 | 12.0 | 0.00 | 0.00 | 0.00 | 31 | 1000.0 |
| 20260504202945 | 77 | 268 | 1.0 | 7.0 | 0.00 | 0.00 | 0.00 | 33 | 1000.0 |
| 20260504202441 | 76 | 217 | 3.0 | 13.0 | 0.00 | 0.00 | 0.00 | 31 | 1000.2 |
| 20260504201938 | 77 | 165 | 3.0 | 8.0 | 0.00 | 0.00 | 0.00 | 31 | 999.9 |
| 20260504201435 | 77 | 180 | 3.0 | 12.0 | 0.00 | 0.00 | 0.00 | 31 | 1000.1 |
| 20260504200933 | 77 | 175 | 5.0 | 11.0 | 0.00 | 0.00 | 0.00 | 30 | 1000.2 |
| 20260504200430 | 77 | 184 | 6.0 | 15.0 | 0.00 | 0.00 | 0.00 | 30 | 1000.2 |
| 20260504195926 | 78 | 172 | 4.0 | 10.0 | 0.00 | 0.00 | 0.00 | 31 | 1000.3 |
| 20260504195422 | 78 | 208 | 4.0 | 7.0 | 0.00 | 0.00 | 0.00 | 31 | 1000.2 |
| 20260504194919 | 79 | 189 | 6.0 | 11.0 | 0.00 | 0.00 | 0.00 | 31 | 1000.3 |
| 20260504194415 | 78 | 189 | 4.0 | 13.0 | 0.00 | 0.00 | 0.00 | 30 | 1000.4 |
| 20260504193911 | 79 | 183 | 7.0 | 14.0 | 0.00 | 0.00 | 0.00 | 29 | 1000.5 |
| 20260504193408 | 78 | 203 | 3.0 | 14.0 | 0.00 | 0.00 | 0.00 | 30 | 1000.6 |
| 20260504192907 | 78 | 309 | 3.0 | 8.0 | 0.00 | 0.00 | 0.00 | 30 | 1000.5 |
| 20260504192404 | 78 | 191 | 2.0 | 12.0 | 0.00 | 0.00 | 0.00 | 31 | 1000.5 |
| 20260504191903 | 79 | 191 | 3.0 | 12.0 | 0.00 | 0.00 | 0.00 | 30 | 1000.5 |
| 20260504191400 | 78 | 201 | 2.0 | 8.0 | 0.00 | 0.00 | 0.00 | 29 | 1000.7 |
| 20260504190855 | 77 | 313 | 3.0 | 7.0 | 0.00 | 0.00 | 0.00 | 31 | 1000.7 |
| 20260504190351 | 77 | 144 | 2.0 | 13.0 | 0.00 | 0.00 | 0.00 | 29 | 1000.9 |
| 20260504185848 | 78 | 36 | 2.0 | 5.0 | 0.00 | 0.00 | 0.00 | 29 | 1000.7 |
| 20260504185345 | 77 | 192 | 4.0 | 11.0 | 0.00 | 0.00 | 0.00 | 29 | 1000.7 |
| 20260504184841 | 78 | 250 | 3.0 | 9.0 | 0.00 | 0.00 | 0.00 | 31 | 1000.9 |
| 20260504184337 | 78 | 205 | 5.0 | 12.0 | 0.00 | 0.00 | 0.00 | 30 | 1001.0 |
| 20260504183833 | 77 | 281 | 4.0 | 10.0 | 0.00 | 0.00 | 0.00 | 30 | 1000.9 |
| 20260504183331 | 77 | 161 | 5.0 | 10.0 | 0.00 | 0.00 | 0.00 | 30 | 1000.8 |
| 20260504182828 | 77 | 200 | 3.0 | 11.0 | 0.00 | 0.00 | 0.00 | 29 | 1001.1 |
| 20260504182326 | 77 | 209 | 3.0 | 8.0 | 0.00 | 0.00 | 0.00 | 30 | 1001.1 |
| 20260504181822 | 77 | 299 | 3.0 | 11.0 | 0.00 | 0.00 | 0.00 | 31 | 1001.2 |
| 20260504181320 | 77 | 209 | 6.0 | 12.0 | 0.00 | 0.00 | 0.00 | 28 | 1001.0 |
| 20260504180819 | 76 | 20 | 3.0 | 9.0 | 0.00 | 0.00 | 0.00 | 32 | 1001.0 |
| 20260504180317 | 76 | 180 | 16.0 | 16.0 | 0.00 | 0.00 | 0.00 | 29 | 1001.2 |
| 20260504175815 | 77 | 211 | 8.0 | 13.0 | 0.00 | 0.00 | 0.00 | 29 | 1001.3 |
| 20260504175311 | 75 | 173 | 5.0 | 15.0 | 0.00 | 0.00 | 0.00 | 31 | 1001.5 |
| 20260504174810 | 76 | 239 | 5.0 | 15.0 | 0.00 | 0.00 | 0.00 | 30 | 1001.3 |
| 20260504174306 | 76 | 217 | 3.0 | 12.0 | 0.00 | 0.00 | 0.00 | 31 | 1001.4 |
| 20260504173803 | 76 | 177 | 7.0 | 14.0 | 0.00 | 0.00 | 0.00 | 29 | 1001.6 |
| 20260504173300 | 77 | 179 | 3.0 | 7.0 | 0.00 | 0.00 | 0.00 | 31 | 1001.5 |
| 20260504172756 | 76 | 185 | 5.0 | 9.0 | 0.00 | 0.00 | 0.00 | 33 | 1001.9 |
| 20260504172254 | 75 | 218 | 3.0 | 13.0 | 0.00 | 0.00 | 0.00 | 32 | 1002.0 |
| 20260504171749 | 76 | 143 | 2.0 | 15.0 | 0.00 | 0.00 | 0.00 | 33 | 1002.0 |
| 20260504171247 | 76 | 141 | 3.0 | 13.0 | 0.00 | 0.00 | 0.00 | 34 | 1001.8 |
| 20260504170743 | 75 | 195 | 3.0 | 13.0 | 0.00 | 0.00 | 0.00 | 33 | 1001.9 |
| 20260504170241 | 75 | 195 | 5.0 | 11.0 | 0.00 | 0.00 | 0.00 | 34 | 1002.2 |
| 20260504160159 | 72 | 171 | 5.0 | 11.0 | 0.00 | 0.00 | 0.00 | 39 | 1003.0 |
| 20260504151127 | 67 | 174 | 3.0 | 7.0 | 0.00 | 0.00 | 0.00 | 52 | 1003.7 |
| 20260504150624 | 68 | 204 | 2.0 | 6.0 | 0.00 | 0.00 | 0.00 | 53 | 1003.7 |
| 20260504150121 | 66 | 338 | 0.0 | 7.0 | 0.00 | 0.00 | 0.00 | 57 | 1003.7 |
| 20260504141050 | 61 | 181 | 3.0 | 5.0 | 0.00 | 0.00 | 0.00 | 63 | 1003.9 |
| 20260504140546 | 60 | 178 | 2.0 | 7.0 | 0.00 | 0.00 | 0.00 | 64 | 1003.9 |
| 20260504130510 | 55 | 175 | 5.0 | 9.0 | 0.00 | 0.00 | 0.00 | 72 | 1004.4 |
| 20260504110358 | 48 | 176 | 3.0 | 10.0 | 0.00 | 0.00 | 0.00 | 80 | 1004.4 |
| 20260504100315 | 48 | 198 | 5.0 | 8.0 | 0.00 | 0.00 | 0.00 | 80 | 1004.3 |
| 20260504081709 | 49 | 286 | 3.0 | 5.0 | 0.00 | 0.00 | 0.00 | 77 | 1004.8 |
| 20260504081205 | 49 | 218 | 3.0 | 10.0 | 0.00 | 0.00 | 0.00 | 76 | 1004.7 |
| 20260504080701 | 49 | 172 | 3.0 | 12.0 | 0.00 | 0.00 | 0.00 | 76 | 1004.9 |
| 20260504080158 | 49 | 169 | 5.0 | 7.0 | 0.00 | 0.00 | 0.00 | 76 | 1004.9 |
| 20260504070126 | 49 | 221 | 2.0 | 9.0 | 0.00 | 0.00 | 0.00 | 74 | 1005.6 |
| 20260504050514 | 50 | 167 | 2.0 | 10.0 | 0.00 | 0.00 | 0.00 | 71 | 1007.2 |
| 20260504050012 | 50 | 166 | 2.0 | 11.0 | 0.00 | 0.00 | 0.00 | 70 | 1007.1 |
| 20260504045508 | 50 | 177 | 6.0 | 9.0 | 0.00 | 0.00 | 0.00 | 70 | 1007.4 |
| 20260504045003 | 50 | 195 | 5.0 | 7.0 | 0.00 | 0.00 | 0.00 | 69 | 1007.3 |
| 20260504044501 | 50 | 208 | 3.0 | 8.0 | 0.00 | 0.00 | 0.00 | 70 | 1007.1 |
| 20260504043958 | 50 | 140 | 3.0 | 5.0 | 0.00 | 0.00 | 0.00 | 69 | 1007.3 |
| 20260504043455 | 50 | 167 | 3.0 | 6.0 | 0.00 | 0.00 | 0.00 | 69 | 1007.2 |
| 20260504042952 | 50 | 131 | 2.0 | 7.0 | 0.00 | 0.00 | 0.00 | 69 | 1007.3 |
| 20260504042449 | 50 | 161 | 4.0 | 9.0 | 0.00 | 0.00 | 0.00 | 69 | 1007.5 |
| 20260504041946 | 50 | 196 | 5.0 | 9.0 | 0.00 | 0.00 | 0.00 | 69 | 1007.5 |
| 20260504041442 | 50 | 187 | 4.0 | 10.0 | 0.00 | 0.00 | 0.00 | 69 | 1007.3 |
| 20260504040938 | 50 | 183 | 2.0 | 7.0 | 0.00 | 0.00 | 0.00 | 69 | 1007.4 |
| 20260504040436 | 50 | 127 | 3.0 | 8.0 | 0.00 | 0.00 | 0.00 | 69 | 1007.5 |
| 20260504035931 | 50 | 187 | 3.0 | 10.0 | 0.00 | 0.00 | 0.00 | 69 | 1007.6 |
| 20260504035429 | 50 | 218 | 4.0 | 7.0 | 0.00 | 0.00 | 0.00 | 69 | 1007.6 |
| 20260504034926 | 50 | 199 | 4.0 | 10.0 | 0.00 | 0.00 | 0.00 | 69 | 1007.8 |
| 20260504034423 | 50 | 272 | 3.0 | 5.0 | 0.00 | 0.00 | 0.00 | 69 | 1007.5 |
| 20260504033920 | 51 | 185 | 4.0 | 7.0 | 0.00 | 0.00 | 0.00 | 68 | 1007.6 |
| 20260504033418 | 51 | 173 | 3.0 | 11.0 | 0.00 | 0.00 | 0.00 | 68 | 1007.9 |
| 20260504032915 | 51 | 212 | 3.0 | 11.0 | 0.00 | 0.00 | 0.00 | 68 | 1007.9 |
| 20260504032411 | 51 | 199 | 4.0 | 7.0 | 0.00 | 0.00 | 0.00 | 69 | 1007.9 |
| 20260504031908 | 51 | 200 | 2.0 | 4.0 | 0.00 | 0.00 | 0.00 | 69 | 1007.9 |
| 20260504031405 | 51 | 220 | 4.0 | 7.0 | 0.00 | 0.00 | 0.00 | 68 | 1008.2 |
| 20260504030902 | 51 | 151 | 3.0 | 7.0 | 0.00 | 0.00 | 0.00 | 68 | 1007.9 |
| 20260504030359 | 51 | 155 | 5.0 | 9.0 | 0.00 | 0.00 | 0.00 | 68 | 1007.8 |
| 20260504025855 | 51 | 194 | 2.0 | 8.0 | 0.00 | 0.00 | 0.00 | 68 | 1008.1 |
| 20260504025352 | 51 | 155 | 3.0 | 7.0 | 0.00 | 0.00 | 0.00 | 68 | 1008.0 |
| 20260504024849 | 51 | 151 | 1.0 | 7.0 | 0.00 | 0.00 | 0.00 | 68 | 1008.0 |
| 20260504024345 | 51 | 176 | 2.0 | 8.0 | 0.00 | 0.00 | 0.00 | 67 | 1008.2 |
| 20260504023842 | 51 | 209 | 4.0 | 8.0 | 0.00 | 0.00 | 0.00 | 67 | 1008.2 |
| 20260504023339 | 51 | 185 | 6.0 | 9.0 | 0.00 | 0.00 | 0.00 | 67 | 1008.3 |
| 20260504022834 | 51 | 199 | 2.0 | 12.0 | 0.00 | 0.00 | 0.00 | 67 | 1008.2 |
| 20260504022332 | 51 | 166 | 1.0 | 10.0 | 0.00 | 0.00 | 0.00 | 67 | 1008.2 |
| 20260504021828 | 51 | 166 | 3.0 | 8.0 | 0.00 | 0.00 | 0.00 | 67 | 1008.2 |
| 20260504021326 | 51 | 147 | 2.0 | 5.0 | 0.00 | 0.00 | 0.00 | 66 | 1008.4 |
| 20260504020822 | 51 | 201 | 2.0 | 5.0 | 0.00 | 0.00 | 0.00 | 66 | 1008.4 |
| 20260504020319 | 52 | 196 | 3.0 | 9.0 | 0.00 | 0.00 | 0.00 | 66 | 1008.4 |
| 20260504015815 | 52 | 177 | 3.0 | 7.0 | 0.00 | 0.00 | 0.00 | 66 | 1008.5 |
| 20260504015311 | 51 | 89 | 1.0 | 6.0 | 0.00 | 0.00 | 0.00 | 66 | 1008.6 |
| 20260504014808 | 52 | 144 | 4.0 | 6.0 | 0.00 | 0.00 | 0.00 | 65 | 1008.5 |
| 20260504014304 | 52 | 171 | 2.0 | 4.0 | 0.00 | 0.00 | 0.00 | 66 | 1008.3 |
| 20260504013802 | 52 | 176 | 3.0 | 6.0 | 0.00 | 0.00 | 0.00 | 65 | 1008.4 |
| 20260504013259 | 52 | 142 | 1.0 | 5.0 | 0.00 | 0.00 | 0.00 | 65 | 1008.5 |
| 20260504012755 | 52 | 186 | 4.0 | 6.0 | 0.00 | 0.00 | 0.00 | 64 | 1008.4 |
| 20260504012254 | 52 | 153 | 3.0 | 6.0 | 0.00 | 0.00 | 0.00 | 65 | 1008.3 |
| 20260504011750 | 52 | 107 | 5.0 | 9.0 | 0.00 | 0.00 | 0.00 | 65 | 1008.3 |
| 20260504011247 | 53 | 136 | 1.0 | 7.0 | 0.00 | 0.00 | 0.00 | 64 | 1008.3 |
| 20260504010743 | 53 | 194 | 4.0 | 7.0 | 0.00 | 0.00 | 0.00 | 64 | 1008.4 |
| 20260504010238 | 53 | 225 | 5.0 | 11.0 | 0.00 | 0.00 | 0.00 | 64 | 1008.3 |
| 20260504005735 | 53 | 156 | 2.0 | 3.0 | 0.00 | 0.00 | 0.00 | 64 | 1008.5 |
| 20260504005233 | 53 | 186 | 3.0 | 8.0 | 0.00 | 0.00 | 0.00 | 63 | 1008.5 |
| 20260504004730 | 53 | 171 | 5.0 | 8.0 | 0.00 | 0.00 | 0.00 | 63 | 1008.5 |
| 20260504004227 | 53 | 165 | 2.0 | 7.0 | 0.00 | 0.00 | 0.00 | 63 | 1008.6 |
| 20260504003724 | 53 | 182 | 5.0 | 8.0 | 0.00 | 0.00 | 0.00 | 62 | 1008.5 |
| 20260504003221 | 53 | 192 | 3.0 | 9.0 | 0.00 | 0.00 | 0.00 | 63 | 1008.6 |
| 20260504002717 | 54 | 184 | 3.0 | 7.0 | 0.00 | 0.00 | 0.00 | 62 | 1008.6 |
| 20260504002214 | 54 | 174 | 6.0 | 9.0 | 0.00 | 0.00 | 0.00 | 61 | 1008.7 |